Regional Weather Roundup
Issued by NWS Wilmington, NC

Home | Current Version | Previous Version | Text Only | Print | Product List | Glossary On
Versions: 1 2 3 4 5 6 7 8 9 10 11 12 13 14 15 16 17 18 19 20 21 22 23 24 25 26 27 28
000
ASUS42 KILM 250710
RWRILM
RWRILM
REGIONAL HOURLY WEATHER ROUNDUP
NATIONAL WEATHER SERVICE WILMINGTON NC
300 AM EDT SAT OCT 25 2014

NOTE: "FAIR" INDICATES FEW OR NO CLOUDS BELOW 12,000 FEET WITH NO
SIGNIFICANT WEATHER AND/OR OBSTRUCTIONS TO VISIBILITY.

...............WFO WILMINGTON COUNTY WARNING AREA...............

......COASTAL NC AND SC COUNTIES......

CITY           SKY/WX    TMP DP  RH WIND       PRES   REMARKS
WILMINGTON     MOCLDY    50  48  93 S5        29.97F
SOUTHPORT      MOCLDY    52  49  88 CALM      29.98S
N MYRTLE BEACH PTCLDY    51  48  89 CALM      29.98F
MYRTLE BEACH   PTCLDY    54  46  76 CALM      29.98F

......INLAND NC AND SC COUNTIES.......

CITY           SKY/WX    TMP DP  RH WIND       PRES   REMARKS
LUMBERTON      CLEAR     43  41  93 CALM      29.98F
ELIZABETHTOWN  CLEAR     49  47  93 CALM      29.98F
WHITEVILLE     CLEAR     50  48  93 CALM      29.98S
FLORENCE       CLEAR     49  46  90 N3        29.99F
DARLINGTON     CLEAR     43  37  81 CALM      30.00S

....................REST OF NORTH CAROLINA......................

.........EASTERN NC.........

CITY           SKY/WX    TMP DP  RH WIND       PRES   REMARKS
CAPE HATTERAS  CLEAR     52  51  97 CALM      29.95F
JACKSONVILLE   PTCLDY    43  39  87 CALM      29.97F
MOREHEAD CITY  PTCLDY    55  51  86 NW6       29.97S
KENANSVILLE    PTCLDY    43  43  99 CALM      29.98S
NEW BERN       CLEAR     50  47  89 CALM      29.98S
ELIZABETH CITY CLEAR     53  44  71 W3        29.95F

.........CENTRAL NC.........

CITY           SKY/WX    TMP DP  RH WIND       PRES   REMARKS
RALEIGH DURHAM PTCLDY    45  42  89 CALM      29.98S
ROCKY MOUNT    CLEAR     45  43  93 CALM      29.97S FOG
ROANOKE RAPIDS NOT AVBL
FAYETTEVILLE   CLEAR     47  44  90 SW5       29.97F
HOFFMAN        CLEAR     42  42  99 SW2       30.00S

.........WESTERN NC.........

CITY           SKY/WX    TMP DP  RH WIND       PRES   REMARKS
CHARLOTTE      CLEAR     44  42  93 NW7       30.01S
GREENSBORO     CLEAR     44  40  85 CALM      29.99S
HICKORY        NOT AVBL
BOONE          NOT AVBL
ASHEVILLE      NOT AVBL

.....................REST OF SOUTH CAROLINA.....................

.........EASTERN SC.........

CITY           SKY/WX    TMP DP  RH WIND       PRES   REMARKS
CHARLESTON     CLEAR     55  50  83 CALM      29.98F
BEAUFORT MCAS  CLEAR     52  49  89 SW3       29.99F
HILTON HEAD    NOT AVBL

.........CENTRAL SC.........

CITY           SKY/WX    TMP DP  RH WIND       PRES   REMARKS
COLUMBIA       CLEAR     44  41  89 W3        30.00S
ORANGEBURG     CLEAR     48  45  89 CALM      30.00S
SUMTER SHAW    CLEAR     48  47  96 CALM      29.98S

.........WESTERN SC.........

CITY           SKY/WX    TMP DP  RH WIND       PRES   REMARKS
GREENVILLE     NOT AVBL
ROCK HILL      CLEAR     41  41 100 CALM      30.00F FOG
ANDERSON       CLEAR     46  44  93 N6        30.03R
CLEMSON        NOT AVBL
GREENWOOD      CLEAR     43  42  97 CALM      30.03S


...................COASTAL AND OFFSHORE REPORTS..................

................LOCAL PIERS AND NC RESERVE................


STATION/POSITION TIME  SKY/WX   TEMP    WIND        PRES    VSBY
                                AIR SEA DIR/SP/G
                 (UTC)          (F)     (DEG/KT/KT) (MB)    (MI)
JOHNY MRCER PIER 0700            57 72  280/  6/  8 1014.4R
NC RESRV MASNBRO 0600            54     230/  1     1015.0S
OCEAN CREST PIER 0700            58 69  310/  4/  5 1014.2F
SPRINGMAID  PIER 0700            56 70  310/  5/  6 1015.0F


................COASTAL AND OFFSHORE BUOYS................


STATION/POSITION TIME  SKY/WX   TEMP    WIND        PRES    VSBY
                                AIR SEA DIR/SP/G
                 (UTC)          (F)     (DEG/KT/KT) (MB)    (MI)
DIMNDSHOAL 41025 0700            65     330/ 14/ 16 1014.3F
WVE H/P(F/S)=  3/ 9 WND WVE H/P(F/S)=  2/ 6 SWL H/P/D(F/S/D)=  2/ 40/ 9

CAPE LOOKOUT     0600            63     330/  6/  7 1014.6F
ONSLOW BAY 41036 0700            68 74  340/  8/ 12 1014.1F
WVE H/P(F/S)=  3/ 9 WND WVE H/P(F/S)=  2/ 3 SWL H/P/D(F/S/D)=  3/ 90/ 9

5 WRITEBCH 41038 0700            61 72  300/  8/ 10   N/A
MASONBORO  41110 0700               71                N/A
WVE H/P(F/S)=  2/ 9 WND WVE H/P(F/S)=  2/ 9

WILM HARBR 41108 0700               70                N/A
WVE H/P(F/S)=  2/10 WND WVE H/P(F/S)=  2/10

27WRITEBCH 41037 0600            65 75  360/  8/  8 1014.7F
FRYING PAN 41013 0700            67 73  350/  4/  6 1015.7F
WVE H/P(F/S)=  2/ 9 SWL H/P/D(F/S/D)=  2/110/ 9

SUNST NRSH 41024 0600            62     330/  6/  6 1015.2F
CAPRS NRSH 41029 NOT AVBL
EDISTO     41004 0700            69 78  360/  6/  8 1014.7F
WVE H/P(F/S)=  3/10 SWL H/P/D(F/S/D)=  3/10



..........OFFSHORE BUOYS BEYOND 100 NM OFFSHORE...........
.....IN A TRIANGLE---HAT TO BERMUDA TO BAHAMAS TO HAT.....


STATION/POSITION TIME  SKY/WX   TEMP    WIND        PRES    VSBY
                                AIR SEA DIR/SP/G
                 (UTC)          (F)     (DEG/KT/KT) (MB)    (MI)
150E HAT   41001 NOT AVBL
W BERMUDA  41048 0649            75 79  310/ 12/ 14 1011.7F
WVE H/P(F/S)=  7/ 9 WND WVE H/P(F/S)=  2/ 4 SWL H/P/D(F/S/D)=  7/350/ 9

ATLANTIC S 41049 0649            80 81  220/ 12/ 16 1012.2F
WVE H/P(F/S)=  8/ 9 WND WVE H/P(F/S)=  2/ 5 SWL H/P/D(F/S/D)=  7/310/ 9

E BAHAMAS  41046 0615            83 84  160/ 14/ 17 1010.7F
WVE H/P(F/S)=  5/11 WND WVE H/P(F/S)=  3/ 5 SWL H/P/D(F/S/D)=  5/11

NE BAHAMAS 41047 0649            75 81   40/ 16/ 17 1008.1F
WVE H/P(F/S)=  5/10 WND WVE H/P(F/S)=  3/ 7 SWL H/P/D(F/S/D)=  5/10

120E CANVRL41010 0700            75 82   20/ 14/ 19 1012.9F
WVE H/P(F/S)=  3/10 WND WVE H/P(F/S)=  2/ 4 SWL H/P/D(F/S/D)=  2/ 50/10


END



USA.gov is the U.S. government's official web portal to all federal, state and local government web resources and services.